Orbital Elements at Epoch 2459000.5 (2020-May-31.0) TDB
Reference: JPL 6 (heliocentric ecliptic J2000)
Element | Value | Uncertainty (1-sigma) | Units |
e | .1366685908511067 | 1.1976e-07 | |
a | 2.623589147010746 | 3.5068e-08 | au |
q | 2.26502691531653 | 3.2724e-07 | au |
i | 9.820176278037394 | 9.1628e-06 | deg |
node | 56.42528242788721 | 5.4388e-05 | deg |
peri | 116.6319056989596 | 7.0702e-05 | deg |
M | 217.9904726615663 | 5.5844e-05 | deg |
tp | 2459612.789971842273 (2022-Feb-02.28997184) | 0.00025034 | TDB |
period | 1552.180293776404 4.25 | 3.1121e-05 8.52e-08 | d yr |
n | .2319318196754913 | 4.6502e-09 | deg/d |
Q | 2.982151378704962 | 3.9861e-08 | au |
|
| | Orbit Determination Parameters
Additional Information
|